Weather reports worldwide

Advertisment
Portglenone, United Kingdom (3915): temperature & dewpoint: 18.03.2019 16:00:00 - 24.03.2019 16:00:00 (GMT)Portglenone, United Kingdom (3915): temperature -20cm & temperature -100cm: 18.03.2019 16:00:00 - 24.03.2019 16:00:00 (GMT)Portglenone, United Kingdom (3915): wind speed & gusts: 18.03.2019 16:00:00 - 24.03.2019 16:00:00 (GMT)Portglenone, United Kingdom (3915): wind direction: 18.03.2019 16:00:00 - 24.03.2019 16:00:00 (GMT)Portglenone, United Kingdom (3915): reduced air pressure: 18.03.2019 16:00:00 - 24.03.2019 16:00:00 (GMT)Portglenone, United Kingdom (3915): visibility: 18.03.2019 16:00:00 - 24.03.2019 16:00:00 (GMT)Portglenone, United Kingdom (3915): precipitation: 18.03.2019 16:00:00 - 24.03.2019 16:00:00 (GMT)
Date & Time tt [°C] td [°C] tt -20cm [°C] tt -100cm [°C] ff [km/h] ff [kn] fx [km/h] fx [kn] dd ppp [hPa] vv [km] rr [mm]
24.03.2019 16:00:00 8,8 5,6 - - 29 16 55 30 WNW 1028,0 17 0,0
24.03.2019 15:00:00 9,6 5,0 - - 28 15 48 26 WNW 1027,9 13 0,0
24.03.2019 14:00:00 8,7 5,0 - - 29 16 57 31 WNW 1027,9 19 0,8
24.03.2019 13:00:00 10,0 4,6 - - 26 14 55 30 W 1027,6 19 0,0
24.03.2019 12:00:00 9,1 6,0 - - 26 14 48 26 W 1027,8 35 0,2
24.03.2019 11:00:00 8,6 4,0 - - 22 12 - - W 1028,0 19 0,0
24.03.2019 10:00:00 7,0 3,9 - - 15 8 - - WSW 1028,4 8 0,0
24.03.2019 09:00:00 6,0 2,9 7,7 7,5 18 10 - - SSW 1028,7 30 0,0
24.03.2019 08:00:00 4,5 2,6 - - 13 7 - - S 1028,7 30 0,0
24.03.2019 07:00:00 3,5 1,4 - - 16 9 - - S 1029,0 30 0,0
24.03.2019 06:00:00 3,3 1,3 - - 13 7 - - S 1029,4 40 0,0
24.03.2019 05:00:00 2,7 0,7 - - 11 6 - - SSE 1029,4 30 0,0
24.03.2019 04:00:00 3,2 0,9 - - 11 6 - - S 1030,0 26 0,0
24.03.2019 03:00:00 3,8 1,2 - - 9 5 - - S 1030,4 26 0,0
24.03.2019 02:00:00 3,7 1,2 - - 4 2 - - S 1030,8 25 0,0
24.03.2019 01:00:00 4,1 1,4 - - 8 4 - - SW 1031,3 26 0,0
24.03.2019 00:00:00 3,8 1,0 - - 8 4 - - S 1031,8 28 0,0
23.03.2019 23:00:00 4,6 1,0 - - 5 3 - - SSW 1032,1 28 0,0
23.03.2019 22:00:00 5,3 1,2 - - 4 2 - - W 1032,5 24 0,0
23.03.2019 21:00:00 5,5 0,8 - - 8 4 - - WSW 1032,8 30 0,0
23.03.2019 20:00:00 6,2 1,0 - - 4 2 - - W 1032,5 35 0,0
23.03.2019 19:00:00 6,8 1,1 - - 5 3 - - WSW 1032,3 27 0,0
23.03.2019 18:00:00 7,9 1,2 - - 9 5 - - W 1032,4 27 0,0
23.03.2019 17:00:00 8,5 2,0 - - 9 5 - - SW 1032,4 27 0,0
23.03.2019 16:00:00 8,9 1,4 - - 9 5 - - SW 1032,3 19 0,0
23.03.2019 15:00:00 8,9 1,5 - - 11 6 - - WSW 1032,5 35 0,0
23.03.2019 14:00:00 9,0 2,0 - - 16 9 - - WNW 1032,8 27 0,0
23.03.2019 13:00:00 10,2 2,9 - - 15 8 - - WNW 1032,8 27 0,0
23.03.2019 12:00:00 9,2 1,0 - - 15 8 - - W 1032,9 30 0,0
23.03.2019 11:00:00 7,8 1,6 - - 16 9 - - W 1032,7 19 0,0
23.03.2019 10:00:00 7,2 2,6 - - 5 3 - - SSW 1032,4 25 0,0
23.03.2019 09:00:00 4,8 2,0 7,7 7,4 9 5 - - S 1032,2 26 0,0
23.03.2019 08:00:00 3,2 0,8 - - 8 4 - - S 1031,6 25 0,0
23.03.2019 07:00:00 2,0 0,4 - - 8 4 - - S 1030,7 24 0,0
23.03.2019 06:00:00 2,8 0,3 - - 8 4 - - SW 1030,2 21 0,0
23.03.2019 05:00:00 3,1 0,4 - - 8 4 - - WSW 1029,7 20 0,0
23.03.2019 04:00:00 3,0 -0,1 - - 4 2 - - W 1029,3 18 0,0
23.03.2019 03:00:00 3,5 0,1 - - 4 2 - - SSW 1028,9 16 0,0
23.03.2019 02:00:00 3,4 -0,2 - - 2 1 - - SW 1028,5 15 0,0
23.03.2019 01:00:00 4,4 0,3 - - 9 5 - - WSW 1027,8 14 0,0
23.03.2019 00:00:00 3,5 0,1 - - 8 4 - - SE 1027,3 14 0,0
22.03.2019 23:00:00 4,8 0,2 - - 8 4 - - SW 1026,7 16 0,0
22.03.2019 22:00:00 5,5 0,5 - - 18 10 - - W 1025,8 14 0,0
22.03.2019 21:00:00 5,7 1,5 - - 15 8 - - W 1025,3 14 0,0
22.03.2019 20:00:00 6,1 1,9 - - 9 5 - - WSW 1024,5 15 0,0
22.03.2019 19:00:00 6,9 2,1 - - 15 8 - - W 1023,5 18 0,0
22.03.2019 18:00:00 8,2 0,4 - - 18 10 - - WSW 1022,2 19 0,0
22.03.2019 17:00:00 9,3 2,4 - - 21 11 - - W 1021,3 23 0,0
22.03.2019 16:00:00 9,9 2,9 - - 24 13 57 31 W 1020,5 22 0,0
22.03.2019 15:00:00 10,5 4,2 - - 22 12 - - W 1019,6 22 0,0
22.03.2019 14:00:00 10,2 5,6 - - 15 8 - - SW 1018,9 14 0,0
22.03.2019 13:00:00 8,8 6,8 - - 11 6 - - W 1018,7 17 0,0
22.03.2019 12:00:00 9,4 6,9 - - 15 8 - - WSW 1017,9 27 0,4
22.03.2019 11:00:00 10,2 8,1 - - 22 12 - - SSW 1017,1 12 0,0
22.03.2019 10:00:00 10,1 8,0 - - 22 12 - - S 1017,0 40 0,0
22.03.2019 09:00:00 10,0 7,3 7,7 7,2 24 13 - - S 1017,1 35 0,0
22.03.2019 08:00:00 10,0 7,6 - - 28 15 50 27 S 1017,1 50 0,0
22.03.2019 07:00:00 10,4 7,2 - - 35 19 55 30 S 1017,7 40 0,0
22.03.2019 06:00:00 10,3 7,3 - - 28 15 - - S 1017,6 45 0,0
22.03.2019 05:00:00 9,7 7,7 - - 29 16 52 28 S 1018,3 16 0,0
22.03.2019 04:00:00 9,3 8,0 - - 34 18 50 27 S 1018,5 25 0,0
22.03.2019 03:00:00 9,6 7,8 - - 29 16 54 29 S 1019,2 30 0,0
22.03.2019 02:00:00 9,9 7,8 - - 26 14 - - S 1020,2 40 0,0
22.03.2019 01:00:00 10,2 8,1 - - 24 13 - - SSE 1021,1 26 0,0
22.03.2019 00:00:00 10,3 8,3 - - 28 15 50 27 SSE 1022,0 19 0,0
21.03.2019 23:00:00 10,3 8,1 - - 34 18 54 29 SSE 1022,6 15 0,0
21.03.2019 22:00:00 10,1 8,2 - - 28 15 - - SSE 1023,3 13 0,0
21.03.2019 21:00:00 10,3 8,2 - - 22 12 - - SSE 1024,5 20 0,0
21.03.2019 20:00:00 11,1 7,8 - - 22 12 - - S 1025,7 15 0,0
21.03.2019 19:00:00 11,0 8,7 - - 15 8 - - SSE 1025,8 30 0,0
21.03.2019 18:00:00 11,3 8,9 - - 18 10 - - SSE 1026,2 29 0,0
21.03.2019 17:00:00 11,8 9,3 - - 16 9 - - S 1026,9 50 0,0
21.03.2019 16:00:00 12,3 9,2 - - 18 10 - - S 1027,4 40 0,0
21.03.2019 15:00:00 13,1 10,2 - - 16 9 - - S 1027,9 50 0,0
21.03.2019 14:00:00 12,7 10,2 - - 16 9 - - S 1028,4 40 0,0
21.03.2019 13:00:00 12,9 9,7 - - 15 8 - - SSW 1029,1 40 0,0
21.03.2019 12:00:00 12,4 9,9 - - 13 7 - - SSW 1029,3 40 0,0
21.03.2019 11:00:00 12,2 10,2 - - 15 8 - - SSW 1029,3 30 0,0
21.03.2019 10:00:00 11,3 10,5 - - 15 8 - - SSW 1029,1 22 0,0
21.03.2019 09:00:00 10,6 9,9 7,5 7,2 15 8 - - S 1028,9 19 0,0
21.03.2019 08:00:00 10,2 9,3 - - 15 8 - - S 1028,7 19 0,0
21.03.2019 07:00:00 10,1 9,1 - - 15 8 - - S 1028,1 29 0,0
21.03.2019 06:00:00 10,1 9,2 - - 15 8 - - S 1027,5 35 0,0
21.03.2019 05:00:00 10,2 9,4 - - 18 10 - - S 1026,8 23 0,0
21.03.2019 04:00:00 10,3 9,4 - - 16 9 - - S 1026,7 30 0,0
21.03.2019 03:00:00 10,1 9,2 - - 21 11 - - S 1026,5 9 0,0
21.03.2019 02:00:00 10,0 8,9 - - 16 9 - - S 1026,7 7 0,0
21.03.2019 01:00:00 10,6 8,7 - - 21 11 - - S 1026,7 18 0,0
21.03.2019 00:00:00 10,6 8,7 - - 13 7 50 27 SW 1026,4 21 0,0
20.03.2019 23:00:00 10,8 8,9 - - 13 7 - - S 1026,6 22 0,0
20.03.2019 22:00:00 10,9 9,5 - - 13 7 - - S 1026,3 24 0,0
20.03.2019 21:00:00 11,5 9,8 - - 11 6 - - SSW 1026,0 27 0,0
20.03.2019 20:00:00 12,2 11,4 - - 9 5 - - W 1025,8 30 0,2
20.03.2019 19:00:00 11,8 10,8 - - 9 5 - - SSW 1025,3 4,4 0,4
20.03.2019 18:00:00 13,3 10,9 - - 21 11 - - SSE 1024,7 40 0,0
20.03.2019 17:00:00 13,0 10,8 - - 16 9 - - S 1024,9 45 0,0
20.03.2019 16:00:00 12,8 10,8 - - 16 9 - - S 1025,2 30 0,0
20.03.2019 15:00:00 12,7 10,5 - - 18 10 - - S 1025,5 29 0,0
20.03.2019 14:00:00 12,7 10,6 - - 18 10 - - SSW 1026,1 35 0,0
20.03.2019 13:00:00 12,1 10,3 - - 21 11 - - S 1026,5 50 0,0
20.03.2019 12:00:00 11,3 9,9 - - 21 11 - - S 1026,4 40 0,0
20.03.2019 11:00:00 10,6 9,9 - - 15 8 - - S 1026,6 29 0,0
20.03.2019 10:00:00 9,4 9,2 - - 16 9 - - S 1027,0 4,9 0,0
20.03.2019 09:00:00 9,0 9,0 7,0 7,2 13 7 - - SSE 1026,8 3,8 0,0
20.03.2019 08:00:00 8,7 8,6 - - 13 7 - - S 1026,7 2,2 0,0
20.03.2019 07:00:00 8,7 8,4 - - 13 7 - - S 1026,3 6 0,0
20.03.2019 06:00:00 8,8 8,3 - - 16 9 - - SSE 1026,0 15 0,0
20.03.2019 05:00:00 9,4 8,7 - - 13 7 - - SSE 1026,2 12 0,0
20.03.2019 04:00:00 9,2 8,4 - - 9 5 - - ESE 1025,9 16 0,0
20.03.2019 03:00:00 9,3 8,4 - - 13 7 - - SSE 1025,9 20 0,0
20.03.2019 02:00:00 9,6 8,6 - - 13 7 - - S 1025,5 20 0,0
20.03.2019 01:00:00 9,6 8,5 - - 11 6 - - S 1025,7 26 0,0
20.03.2019 00:00:00 9,6 8,1 - - 8 4 - - S 1025,8 50 0,0
19.03.2019 23:00:00 9,7 8,1 - - 8 4 - - SSW 1025,5 45 0,0
19.03.2019 22:00:00 9,8 7,7 - - 8 4 - - SSW 1025,2 50 0,0
19.03.2019 21:00:00 9,8 7,9 - - 5 3 - - SSW 1025,2 50 0,0
19.03.2019 20:00:00 10,0 8,0 - - 5 3 - - SW 1024,6 45 0,0
19.03.2019 19:00:00 10,5 8,5 - - 5 3 - - WSW 1024,1 40 0,0
19.03.2019 18:00:00 11,2 8,5 - - 8 4 - - WSW 1023,3 45 0,0
19.03.2019 17:00:00 12,3 7,9 - - 13 7 - - SSW 1022,8 35 0,0
19.03.2019 16:00:00 12,5 8,1 - - 21 11 - - WSW 1022,0 35 0,0
19.03.2019 15:00:00 13,2 9,0 - - 18 10 - - WSW 1021,9 45 0,0
19.03.2019 14:00:00 12,8 10,1 - - 13 7 - - SSW 1021,3 50 0,0
19.03.2019 13:00:00 11,2 10,0 - - 11 6 - - S 1021,1 29 0,0
19.03.2019 12:00:00 9,7 9,0 - - 15 8 - - S 1021,3 35 0,0
19.03.2019 11:00:00 8,3 8,0 - - 16 9 - - S 1021,5 20 0,0
19.03.2019 10:00:00 7,7 7,5 - - 21 11 - - S 1021,4 5 0,0
19.03.2019 09:00:00 7,1 7,0 6,7 7,0 16 9 - - SSE 1021,0 12 0,6
19.03.2019 08:00:00 6,8 6,5 - - 16 9 - - SSE 1021,3 9 0,2
19.03.2019 07:00:00 6,6 6,3 - - 16 9 - - S 1021,3 11 0,2
19.03.2019 06:00:00 6,8 6,0 - - 13 7 - - SSE 1021,2 5 0,0
19.03.2019 05:00:00 7,3 5,8 - - 13 7 - - S 1021,3 12 0,0
19.03.2019 04:00:00 7,6 6,5 - - 9 5 - - S 1021,3 11 0,0
19.03.2019 03:00:00 7,6 6,7 - - 5 3 - - SW 1021,6 18 0,0
19.03.2019 02:00:00 7,9 7,3 - - 5 3 - - SW 1021,9 17 0,0
19.03.2019 01:00:00 8,3 7,3 - - 8 4 - - WSW 1022,0 12 0,0
19.03.2019 00:00:00 8,0 7,3 - - 8 4 - - S 1021,8 16 0,0
18.03.2019 23:00:00 7,9 7,0 - - 5 3 - - SSE 1021,6 21 0,0
18.03.2019 22:00:00 8,4 7,1 - - 5 3 - - WSW 1021,4 16 0,0
18.03.2019 21:00:00 8,5 7,3 - - 5 3 - - W 1021,1 24 0,0
18.03.2019 20:00:00 8,8 7,3 - - 8 4 - - WSW 1020,8 14 0,0
18.03.2019 19:00:00 9,0 7,1 - - 8 4 - - NW 1020,1 19 0,0
18.03.2019 18:00:00 9,6 7,1 - - 11 6 - - WNW 1019,5 15 0,0
18.03.2019 17:00:00 10,2 7,4 - - 15 8 - - NW 1018,5 26 0,0
18.03.2019 16:00:00 10,6 8,0 - - 15 8 - - NW 1017,8 23 0,2

tt = temperature
td = dewpoint
tt -20cm = temperature -20cm
tt -100cm = temperature -100cm
ff = wind speed
fx = gusts
dd = wind direction
ppp = reduced air pressure
vv = visibility
rr = precipitation

Next stations